[[{"header":{"parameterUnit":"m.s-1","parameterCategory":1,"la1":30.2991,"la2":30.254,"lo1":-89.0895,"lo2":-89.0444,"dy":0.0017,"dx":0.0017,"nx":28,"ny":28,"refTime":"2024-12-15T09:00:00:Z","depth":0,"parameterNumber":2,"parameterNumberName":"U-component_of_WINDS"},"data":[0,0,0,0,0,0,0,0,0,0,0,0,0,0,0,0,0,0,0,0,0,0,0,0,0,0,0,0,0,0,0,0,0,0,0,0,0,0,0,0,0,0,0,0,0,0,0,0,0,0,0,0,0,0,0,0,0,0,-1.7468,-1.7467,0,-1.7372,-1.7371,-1.737,-1.7273,-1.7272,-1.7271,-1.7269,-1.717,-1.7168,-1.7167,0,0,0,0,0,0,0,0,0,0,0,0,0,-1.7565,-1.7564,-1.7468,-1.7467,-1.7466,-1.7372,-1.7371,-1.7369,-1.7273,-1.7272,-1.727,-1.7269,-1.717,-1.7168,-1.7167,0,0,0,0,0,0,0,0,0,0,0,0,0,-1.7502,-1.7564,-1.7468,-1.7406,-1.74,-1.7372,-1.7371,-1.7369,-1.7274,-1.7272,-1.727,-1.7268,-1.7171,-1.7169,-1.7166,-1.7192,0,0,-1.716,-1.7159,0,0,0,0,0,0,0,0,-1.7505,-1.7498,-1.7417,-1.7411,-1.7403,-1.7333,-1.7368,-1.731,-1.7274,-1.7322,-1.7269,-1.7267,-1.7225,-1.7219,-1.7205,-1.7187,-1.7183,-1.716,-1.7158,-1.7157,-1.7157,0,0,0,0,0,0,0,-1.751,-1.7502,-1.743,-1.7416,-1.7407,-1.7382,-1.7371,-1.7357,-1.7285,-1.7317,-1.731,-1.73,-1.7221,-1.7207,-1.7202,-1.7181,-1.716,-1.7158,-1.7156,-1.7156,-1.7177,-1.7179,0,0,0,0,0,0,-1.7524,-1.7506,-1.7433,-1.7427,-1.7451,-1.7382,-1.737,-1.7357,-1.7285,-1.7273,-1.7302,-1.7296,-1.7212,-1.7204,-1.7198,-1.7221,-1.7157,-1.7155,-1.7154,-1.7175,-1.7177,-1.7179,0,0,0,0,0,0,-1.7527,-1.7519,-1.7437,-1.7465,-1.7452,-1.7383,-1.7369,-1.7356,-1.7342,-1.7274,-1.726,-1.7301,-1.721,-1.7201,-1.7193,-1.7216,-1.7154,-1.7152,-1.7173,-1.7176,-1.7178,-1.727,0,0,0,0,0,0,-1.753,-1.752,-1.753,-1.7466,-1.7451,-1.7436,-1.7371,-1.7356,-1.7339,-1.733,-1.7269,-1.7257,-1.7208,-1.7197,-1.7191,-1.7212,-1.7151,-1.717,-1.7174,-1.7177,-1.7264,-1.7275,-1.7284,0,0,0,0,0,-1.7534,-1.756,-1.7531,-1.7523,-1.7462,-1.7437,-1.7429,-1.7372,-1.7341,-1.735,-1.7305,-1.7259,-1.7215,-1.7197,-1.719,-1.7211,-1.7169,-1.7173,-1.7177,-1.726,-1.7273,-1.7284,0,0,0,0,0,0,-1.7628,-1.755,-1.7517,-1.7524,-1.7488,-1.7421,-1.743,-1.7388,-1.736,-1.7353,-1.7283,-1.727,-1.7271,-1.7239,-1.7221,-1.723,-1.7185,-1.7188,-1.725,-1.7263,-1.7273,-1.728,-1.7149,0,0,0,0,0,-1.765,-1.7637,-1.7569,-1.7581,-1.7564,-1.7501,-1.7488,-1.7447,-1.7407,-1.7391,-1.7346,-1.7308,-1.7285,-1.7272,-1.7248,-1.7259,-1.7243,-1.7269,-1.7279,-1.7288,-1.7291,-1.7293,-1.7303,-1.7193,-1.7193,-1.7193,0,0,-1.7695,-1.765,-1.7646,-1.7599,-1.7566,-1.7553,-1.7489,-1.7478,-1.7467,-1.7389,-1.7379,-1.7345,-1.7298,-1.73,-1.7298,-1.7274,-1.7318,-1.7293,-1.7301,-1.7299,-1.7298,-1.7309,-1.7318,-1.7196,-1.7195,-1.7195,0,0,-1.7769,-1.7735,-1.774,-1.7709,-1.766,-1.7617,-1.7618,-1.7557,-1.7531,-1.752,-1.7461,-1.7446,-1.7409,-1.7378,-1.7357,-1.7417,-1.7373,-1.7411,-1.7464,-1.7466,-1.7475,-1.7482,-1.7503,-1.7511,-1.7414,-1.7415,-1.7415,0,-1.7831,-1.781,-1.7748,-1.7741,-1.7721,-1.7649,-1.7653,-1.7625,-1.7571,-1.7558,-1.7532,-1.7482,-1.7446,-1.7438,-1.7453,-1.7438,-1.7437,-1.7418,-1.7479,-1.7486,-1.7491,-1.751,-1.7518,-1.7419,-1.7419,-1.7418,-1.7418,0,-1.7887,-1.7873,-1.7883,-1.7832,-1.7813,-1.7812,-1.7749,-1.7737,-1.7697,-1.7656,-1.7645,-1.7598,-1.7562,-1.7557,-1.7518,-1.7543,-1.7529,-1.7492,-1.7445,-1.7508,-1.7524,-1.7531,-1.7427,-1.7425,-1.7423,-1.7422,0,0,-1.802,-1.7934,-1.7939,-1.7914,-1.7854,-1.7841,-1.7835,-1.78,-1.779,-1.7755,-1.7747,-1.7716,-1.7681,-1.7657,-1.7614,-1.7616,-1.7665,-1.7578,-1.7575,-1.7595,-1.7687,-1.7716,-1.7725,-1.7635,-1.7636,-1.7637,-1.7691,0,-1.8084,-1.807,-1.8013,-1.8016,-1.8001,-1.7931,-1.7926,-1.7888,-1.7849,-1.783,-1.7787,-1.7766,-1.7721,-1.7706,-1.7705,-1.7659,-1.7682,-1.7654,-1.7626,-1.7626,-1.764,-1.7733,-1.7764,-1.7817,-1.7697,-1.7698,-1.7699,0,-1.8157,-1.8125,-1.8127,-1.8065,-1.8057,-1.8053,-1.8015,-1.7998,-1.7952,-1.7924,-1.7897,-1.7848,-1.7836,-1.7793,-1.7775,-1.7757,-1.7742,-1.7717,-1.7718,-1.7713,-1.7666,-1.773,-1.7833,-1.7841,-1.7708,-1.7707,-1.7707,0,-1.8253,-1.8211,-1.8205,-1.8186,-1.8115,-1.8113,-1.8083,-1.8036,-1.8018,-1.7984,-1.7971,-1.7936,-1.7918,-1.7891,-1.7834,-1.7808,-1.7821,-1.7774,-1.7796,-1.7798,-1.7803,-1.7803,-1.7904,-1.7794,-1.7794,-1.7794,-1.7794,0,-1.833,-1.8333,-1.8247,-1.8244,-1.8244,-1.8179,-1.8181,-1.8144,-1.8102,-1.8089,-1.8027,-1.8016,-1.7941,-1.7921,-1.7875,-1.7866,-1.7859,-1.7834,-1.7822,-1.7839,-1.7843,-1.7828,-1.7823,-1.7796,-1.7795,-1.7795,-1.7795,0,-1.8437,-1.838,-1.8369,-1.8302,-1.8285,-1.8288,-1.823,-1.8223,-1.818,-1.8164,-1.8157,-1.8089,-1.8062,-1.8002,-1.7959,-1.7928,-1.793,-1.7909,-1.7946,-1.7938,-1.7963,-1.7962,-1.8058,-1.8067,-1.7953,-1.7954,-1.7955,0,-1.849,-1.8491,-1.8423,-1.841,-1.8382,-1.8363,-1.8343,-1.8277,-1.826,-1.8207,-1.8206,-1.8174,-1.8145,-1.8105,-1.8051,-1.8017,-1.7994,-1.803,-1.7988,-1.8005,-1.7993,-1.7993,-1.7992,-1.8039,-1.8041,-1.8042,-1.8043,0,-1.859,-1.8561,-1.8536,-1.85,-1.8479,-1.8448,-1.8413,-1.8406,-1.8331,-1.8314,-1.8286,-1.8263,-1.8218,-1.8187,-1.8144,-1.8112,-1.8065,-1.8056,-1.8059,-1.8077,-1.8098,-1.8086,-1.797,-1.8055,-1.8053,-1.8053,-1.8052,-1.8051,-1.867,-1.8667,-1.8618,-1.8592,-1.8559,-1.8527,-1.8517,-1.8472,-1.8448,-1.8406,-1.8368,-1.8343,-1.8295,-1.8233,-1.8203,-1.8182,-1.8158,-1.8163,-1.8164,-1.8167,-1.8173,-1.8102,-1.8174,-1.8173,-1.8173,-1.8173,-1.8172,0,-1.8766,-1.8731,-1.8707,-1.866,-1.8639,-1.8596,-1.8555,-1.8539,-1.8518,-1.8477,-1.845,-1.8416,-1.8384,-1.8328,-1.8291,-1.8284,-1.8261,-1.8276,-1.8276,-1.8269,-1.8197,-1.8198,-1.8295,-1.8295,-1.8295,-1.8295,-1.8295,-1.8295,-1.8813,-1.8804,-1.877,-1.8743,-1.8707,-1.8682,-1.8662,-1.8632,-1.8599,-1.8564,-1.8538,-1.8501,-1.8453,-1.8411,-1.838,-1.8364,-1.8352,-1.8375,-1.8352,-1.8286,-1.8274,-1.8263,-1.8263,-1.8373,-1.8373,-1.8425,-1.8425,-1.8425]},{"header":{"parameterUnit":"m.s-1","parameterCategory":1,"la1":30.2991,"la2":30.254,"lo1":-89.0895,"lo2":-89.0444,"dy":0.0017,"dx":0.0017,"nx":28,"ny":28,"refTime":"2024-12-15T09:00:00:Z","depth":0,"parameterNumber":3,"parameterNumberName":"V-component_of_WINDS"},"data":[0,0,0,0,0,0,0,0,0,0,0,0,0,0,0,0,0,0,0,0,0,0,0,0,0,0,0,0,0,0,0,0,0,0,0,0,0,0,0,0,0,0,0,0,0,0,0,0,0,0,0,0,0,0,0,0,0,0,-2.0431,-2.0431,0,-2.0431,-2.0431,-2.0431,-2.0406,-2.0405,-2.0404,-2.0404,-2.0404,-2.0404,-2.0405,0,0,0,0,0,0,0,0,0,0,0,0,0,-2.0406,-2.0407,-2.0431,-2.0431,-2.0431,-2.0431,-2.0431,-2.0431,-2.0406,-2.0405,-2.0404,-2.0403,-2.0404,-2.0404,-2.0405,0,0,0,0,0,0,0,0,0,0,0,0,0,-2.0413,-2.0407,-2.0431,-2.0418,-2.0417,-2.0431,-2.0431,-2.0431,-2.0406,-2.0405,-2.0404,-2.0403,-2.0403,-2.0404,-2.0405,-2.0432,0,0,-2.0408,-2.0409,0,0,0,0,0,0,0,0,-2.0413,-2.0414,-2.042,-2.0419,-2.0418,-2.0417,-2.0423,-2.0431,-2.0406,-2.041,-2.0404,-2.0402,-2.0409,-2.041,-2.0412,-2.0432,-2.0432,-2.0408,-2.0409,-2.0409,-2.041,0,0,0,0,0,0,0,-2.0412,-2.0414,-2.0431,-2.042,-2.0419,-2.0412,-2.0412,-2.0424,-2.0415,-2.041,-2.0408,-2.0408,-2.0408,-2.0411,-2.0412,-2.0432,-2.0408,-2.0409,-2.041,-2.041,-2.0472,-2.0473,0,0,0,0,0,0,-2.0414,-2.0413,-2.0431,-2.0431,-2.0413,-2.0413,-2.0413,-2.0418,-2.0415,-2.0414,-2.0409,-2.0407,-2.041,-2.0411,-2.0412,-2.0441,-2.0409,-2.041,-2.0411,-2.0471,-2.0472,-2.0473,0,0,0,0,0,0,-2.0413,-2.0415,-2.0431,-2.0422,-2.0423,-2.0415,-2.0421,-2.0419,-2.0422,-2.0415,-2.0413,-2.0414,-2.0409,-2.041,-2.0427,-2.0441,-2.0411,-2.0411,-2.0469,-2.0471,-2.0472,-2.0501,0,0,0,0,0,0,-2.0413,-2.0415,-2.0426,-2.0422,-2.0424,-2.0446,-2.0422,-2.042,-2.0423,-2.0421,-2.0418,-2.0417,-2.0408,-2.0425,-2.0428,-2.0442,-2.0412,-2.0468,-2.047,-2.0472,-2.0499,-2.0504,-2.0508,0,0,0,0,0,-2.0412,-2.0434,-2.0426,-2.0429,-2.0436,-2.0447,-2.0448,-2.0438,-2.0425,-2.0435,-2.043,-2.0417,-2.0439,-2.0427,-2.0429,-2.0444,-2.0467,-2.0469,-2.0472,-2.0497,-2.0503,-2.0507,0,0,0,0,0,0,-2.044,-2.0433,-2.0425,-2.0447,-2.0448,-2.0443,-2.0455,-2.0444,-2.0449,-2.0446,-2.0433,-2.0433,-2.0451,-2.0449,-2.0436,-2.0469,-2.0451,-2.0454,-2.0469,-2.0474,-2.0479,-2.0478,-2.0413,0,0,0,0,0,-2.0448,-2.0458,-2.0452,-2.0471,-2.0472,-2.0464,-2.0468,-2.046,-2.046,-2.0461,-2.0457,-2.0458,-2.0465,-2.047,-2.0476,-2.0499,-2.0497,-2.051,-2.0514,-2.0518,-2.052,-2.0531,-2.0536,-2.0481,-2.0481,-2.0481,0,0,-2.0466,-2.0464,-2.0471,-2.0477,-2.0477,-2.0486,-2.0464,-2.0475,-2.0482,-2.0462,-2.0477,-2.0475,-2.0474,-2.0494,-2.0502,-2.0493,-2.0535,-2.0521,-2.0524,-2.0524,-2.0534,-2.0539,-2.0544,-2.0482,-2.0482,-2.0482,0,0,-2.0504,-2.0503,-2.0519,-2.0519,-2.0519,-2.0513,-2.0517,-2.0514,-2.0511,-2.0526,-2.0511,-2.0518,-2.0531,-2.0531,-2.0533,-2.0569,-2.0557,-2.0572,-2.0594,-2.0605,-2.0609,-2.0613,-2.0625,-2.0629,-2.0574,-2.0574,-2.0574,0,-2.0526,-2.054,-2.0529,-2.0541,-2.0543,-2.0525,-2.0541,-2.0541,-2.0543,-2.0545,-2.0535,-2.055,-2.0549,-2.0567,-2.0576,-2.0578,-2.0582,-2.0572,-2.0609,-2.0613,-2.0616,-2.0628,-2.0632,-2.0576,-2.0576,-2.0576,-2.0575,0,-2.0567,-2.0577,-2.0589,-2.0591,-2.0595,-2.0609,-2.0599,-2.0605,-2.0596,-2.0591,-2.0606,-2.0604,-2.0608,-2.0612,-2.0604,-2.063,-2.0624,-2.0612,-2.0593,-2.0624,-2.0634,-2.0638,-2.0578,-2.0578,-2.0577,-2.0577,0,0,-2.0622,-2.0617,-2.0621,-2.0621,-2.062,-2.0627,-2.0639,-2.0644,-2.0648,-2.065,-2.066,-2.067,-2.0659,-2.0661,-2.0652,-2.0662,-2.069,-2.0649,-2.0648,-2.0655,-2.0716,-2.0724,-2.073,-2.0682,-2.0683,-2.0683,-2.0716,0,-2.0657,-2.0678,-2.0668,-2.069,-2.0698,-2.0681,-2.0692,-2.0692,-2.0687,-2.0693,-2.0688,-2.0695,-2.068,-2.0681,-2.069,-2.0684,-2.0701,-2.0682,-2.069,-2.069,-2.069,-2.0735,-2.0744,-2.0775,-2.072,-2.072,-2.0721,0,-2.0702,-2.0704,-2.0727,-2.0723,-2.0726,-2.0736,-2.0738,-2.0745,-2.0744,-2.0739,-2.0741,-2.073,-2.0742,-2.0724,-2.0739,-2.0726,-2.0728,-2.0726,-2.0727,-2.0727,-2.0707,-2.0735,-2.0785,-2.0789,-2.0727,-2.0727,-2.0726,0,-2.0738,-2.0748,-2.0762,-2.0763,-2.0758,-2.0766,-2.0764,-2.0762,-2.0765,-2.0767,-2.0769,-2.0773,-2.0775,-2.0778,-2.0768,-2.0756,-2.0784,-2.0765,-2.078,-2.078,-2.0786,-2.0786,-2.0836,-2.079,-2.0789,-2.0789,-2.0789,0,-2.0778,-2.0792,-2.0778,-2.0787,-2.0803,-2.079,-2.0806,-2.0802,-2.08,-2.0808,-2.0794,-2.0801,-2.0788,-2.0794,-2.0787,-2.0799,-2.0801,-2.0797,-2.0795,-2.0798,-2.0798,-2.0799,-2.0796,-2.0791,-2.079,-2.079,-2.079,0,-2.0821,-2.0813,-2.0827,-2.0821,-2.082,-2.0831,-2.0826,-2.0834,-2.0828,-2.0838,-2.0839,-2.083,-2.0836,-2.0827,-2.0832,-2.0827,-2.0845,-2.0839,-2.0845,-2.0843,-2.0858,-2.0856,-2.0909,-2.0915,-2.0866,-2.0866,-2.0867,0,-2.0847,-2.0857,-2.0852,-2.0856,-2.0855,-2.0862,-2.0865,-2.0853,-2.0856,-2.0856,-2.0863,-2.0868,-2.0871,-2.0882,-2.0875,-2.0879,-2.0873,-2.0892,-2.0874,-2.0876,-2.0872,-2.0871,-2.0872,-2.0895,-2.0896,-2.0896,-2.0897,0,-2.0893,-2.0888,-2.0893,-2.0895,-2.0899,-2.0901,-2.0901,-2.0905,-2.0893,-2.0897,-2.0903,-2.0906,-2.0911,-2.0915,-2.0917,-2.0915,-2.0904,-2.0902,-2.0906,-2.0908,-2.0911,-2.0909,-2.0854,-2.0901,-2.09,-2.09,-2.09,-2.09,-2.0928,-2.0936,-2.0933,-2.0938,-2.0937,-2.0938,-2.0945,-2.0939,-2.0944,-2.0947,-2.094,-2.0947,-2.0945,-2.0946,-2.0945,-2.0951,-2.0943,-2.0948,-2.0949,-2.095,-2.0952,-2.0911,-2.0951,-2.0951,-2.0951,-2.0951,-2.0951,0,-2.0972,-2.0969,-2.0974,-2.0975,-2.0979,-2.0968,-2.0968,-2.0972,-2.0978,-2.0977,-2.098,-2.0987,-2.0991,-2.0985,-2.0988,-2.0993,-2.0988,-2.0994,-2.0993,-2.0993,-2.096,-2.0956,-2.0998,-2.0998,-2.0998,-2.0998,-2.0998,-2.0998,-2.0996,-2.1008,-2.1003,-2.1014,-2.1012,-2.1018,-2.1019,-2.1019,-2.1018,-2.1026,-2.1029,-2.1025,-2.1022,-2.1024,-2.1027,-2.1025,-2.1027,-2.1035,-2.1031,-2.1,-2.0995,-2.0991,-2.0987,-2.1036,-2.1036,-2.1064,-2.1064,-2.1064]}]]